Flag for U.S.A. Weather past 2 weeks in Glendale, California, U.S.A.

Now
58 °F

Clear.


Feels Like: 58 °F
Forecast: 59 / 84 °F
Wind: No wind

Location: Burbank-Glendale-Pasadena Airport

Current Time: Oct 22, 2014 at 6:34:24 AM

Latest Report: Oct 22, 2014 at 5:53 AM


Visibility: 10 mi

Pressure: 29.87 "Hg

Humidity: 70%

Dew point: 48 °F

Location of GlendaleLocation

Historic Weather in Glendale — Graph

°F

Glendale temperature yesterday

Maximum temperature yesterday: 78 °F (at 12:53 PM)
Minimum temperature yesterday: 59 °F (at 7:53 AM)
Average temperature yesterday: 68 °F

Past Weeks' High & Low Weather Summary

 TemperatureHumidityPressure
High91 °F (Oct 7, 12:53 PM)97% (Oct 13, 7:53 AM)30.00 "Hg (Oct 13, 7:53 AM)
Low56 °F (Oct 18, 6:53 AM)9% (Oct 7, 1:53 PM)29.75 "Hg (Oct 8, 3:53 PM)
Average68 °F65%29.89 "Hg
* Reported Oct 7 4:53 AM — Oct 22 4:53 AM, Glendale, Weather by CustomWeather, © 2014

Note: Actual official high and low records may vary slightly from our data, if they occured in-between our weather recording intervals... More about our weather records

Advertising

Glendale weather history for previous 24 hours

 ConditionsComfort  
Time TempWeatherWind HumidityBarometerVisibility
4:53 AM
Oct 22
59 °FClear.No wind67%29.85 "Hg10 mi
3:53 AM59 °FClear.No wind69%29.85 "Hg10 mi
2:53 AM59 °FClear.No wind72%29.85 "Hg10 mi
1:53 AM60 °FClear.No wind69%29.85 "Hg10 mi
12:53 AM61 °FClear.No wind67%29.84 "Hg10 mi
11:53 PM
Oct 21
63 °FClear.No wind68%29.85 "Hg10 mi
10:53 PM65 °FClear.No wind78%29.88 "Hg10 mi
9:53 PM66 °FClear.No wind75%29.88 "Hg10 mi
8:53 PM68 °FClear.No wind73%29.87 "Hg10 mi
7:53 PM69 °FClear.No wind70%29.86 "Hg10 mi
6:53 PM70 °FSunny.3 mph68%29.84 "Hg10 mi
5:53 PM73 °FSunny.6 mph62%29.84 "Hg10 mi
4:53 PM75 °FSunny.8 mph54%29.83 "Hg10 mi
3:53 PM76 °FSunny.9 mph54%29.84 "Hg10 mi
2:53 PM75 °FSunny.9 mph55%29.84 "Hg10 mi
1:53 PM77 °FSunny.9 mph48%29.85 "Hg10 mi
12:53 PM78 °FSunny.9 mph43%29.87 "Hg10 mi
11:53 AM76 °FSunny.N/A36%29.90 "Hg10 mi
10:53 AM72 °FSunny.6 mph44%29.92 "Hg10 mi
9:53 AM66 °FSunny.No wind68%29.89 "Hg6 mi
9:00 AM61 °FFog.No wind90%29.93 "Hg2 mi
7:53 AM59 °FFog.No wind96%29.89 "Hg1 mi
6:53 AM60 °FFog.3 mph93%29.87 "Hg1 mi
Weather by CustomWeather, © 2014

See weather overviewHow to use our weather pages